Location: Vancouver
(49.2500°N, 123.1330°W)
Time: 07:05:45
(UTC-07:00)

Vanguard 2 Rocket - Visible Passes

Search period start: 26 July 2016 00:00
Search period end: 05 August 2016 00:00
Orbit: 556 x 3328 km, 32.9° (Epoch: 25 July)

Date Brightness Start Highest point End Pass type
(mag) Time Alt. Az. Time Alt. Az. Time Alt. Az.
26 Jul 10.0 01:27:28 15° SE 01:27:28 15° SE 01:31:44 10° ESE visible
26 Jul 9.2 03:33:14 18° SSW 03:39:28 26° S 03:46:39 10° ESE visible
27 Jul 9.5 02:36:35 23° S 02:39:45 25° SSE 02:47:48 10° ESE visible
27 Jul 8.9 04:43:11 10° SW 04:53:30 29° S 05:00:09 10° SE visible
28 Jul 9.7 01:39:52 22° SSE 01:39:52 22° SSE 01:48:27 10° ESE visible
28 Jul 9.1 03:45:37 17° SW 03:54:03 31° S 04:01:48 10° ESE visible
29 Jul 10.0 00:43:01 18° SE 00:43:01 18° SE 00:48:25 10° ESE visible
29 Jul 9.3 02:48:45 24° SSW 02:54:17 31° S 03:03:08 10° ESE visible
29 Jul 8.9 04:57:11 10° WSW 05:08:00 31° S 05:14:54 10° SE visible
29 Jul 10.3 23:46:00 11° ESE 23:46:00 11° ESE 23:47:10 10° ESE visible
30 Jul 9.5 01:51:43 28° S 01:54:15 29° SSE 02:04:07 10° ESE visible
30 Jul 9.0 03:57:27 13° WSW 04:08:34 34° S 04:16:41 10° ESE visible
30 Jul10.622:48:47ESE22:48:47ESE22:28:32SSEvisible
31 Jul 9.7 00:54:29 26° SSE 00:54:29 26° SSE 01:04:35 10° ESE visible
31 Jul 9.2 03:00:10 22° SW 03:08:46 36° S 03:18:09 10° ESE visible
31 Jul 10.0 23:40:46 10° S 23:56:48 21° SE 00:04:22 10° ESE visible
01 Aug 9.4 02:02:27 28° SSW 02:08:40 35° S 02:19:17 10° ESE visible
01 Aug 9.0 04:09:43 10° WSW 04:22:59 35° S 04:31:21 10° SE visible
01 Aug 10.2 22:42:36 10° S 22:58:06 16° SE 23:03:04 10° ESE visible
02 Aug 9.6 00:52:30 10° SW 01:08:19 33° SSE 01:20:00 10° ESE visible
02 Aug 9.1 03:08:54 12° WSW 03:23:12 38° S 03:32:57 10° ESE visible
02 Aug 10.4 21:46:56 10° SSE 21:53:16 12° SE 21:59:21 10° ESE visible
02 Aug 9.8 23:52:26 10° SSW 00:07:51 29° SSE 00:20:12 10° ESE visible
03 Aug 9.3 02:06:38 10° SW 02:23:02 39° S 02:34:11 10° ESE visible
03 Aug 9.1 04:23:58 10° WSW 04:37:16 34° SSW 04:45:49 10° SE visible
03 Aug 10.0 22:53:11 10° SSW 23:07:21 25° SSE 23:19:42 10° ESE visible
04 Aug 9.5 01:05:34 10° SW 01:22:36 38° SSE 01:35:02 10° ESE visible
04 Aug 9.2 03:22:05 10° WSW 03:37:31 39° S 03:47:32 10° SE visible
04 Aug 10.2 21:55:06 10° S 22:06:59 19° SE 22:18:09 10° ESE visible
